Location: Unspecified
(44.4377°N, 88.0525°W)
Time: 11:25:17
(UTC-05:00)

Resurs 1-4 Rocket - Visible Passes

Search period start: 30 May 2016 00:00
Search period end: 09 June 2016 00:00
Orbit: 800 x 814 km, 98.4° (Epoch: 29 May)

Date Brightness Start Highest point End Pass type
(mag) Time Alt. Az. Time Alt. Az. Time Alt. Az.
30 May 4.2 02:40:24 10° NE 02:44:18 20° E 02:48:10 10° SE visible
30 May 2.4 04:19:17 10° N 04:24:29 56° WNW 04:29:41 10° SSW visible
31 May 4.6 02:17:26 10° ENE 02:19:27 12° E 02:21:27 10° ESE visible
31 May 2.1 03:54:39 10° NNE 04:00:01 90° ENE 04:05:21 10° SSW visible
01 Jun 2.7 03:30:12 10° NNE 03:35:27 56° E 03:40:40 10° S visible
02 Jun 3.5 03:05:57 10° NNE 03:10:47 34° E 03:15:36 10° SSE visible
03 Jun 4.1 02:42:02 10° NE 02:46:02 21° E 02:50:01 10° SE visible
03 Jun 2.4 04:21:01 10° N 04:26:13 54° WNW 04:31:22 10° SSW visible
04 Jun 4.6 02:18:55 10° ENE 02:21:12 13° E 02:23:28 10° ESE visible
04 Jun 2.1 03:56:22 10° NNE 04:01:44 87° WNW 04:07:04 10° SSW visible
05 Jun 2.6 03:31:54 10° NNE 03:37:10 58° E 03:42:25 10° S visible
06 Jun 3.4 03:07:38 10° NNE 03:12:31 36° E 03:17:23 10° SSE visible
07 Jun 4.1 02:43:41 10° NE 02:47:47 22° E 02:51:51 10° SE visible
07 Jun 2.5 04:22:45 10° N 04:27:55 52° WNW 04:33:04 10° SW visible
08 Jun 4.5 02:20:27 10° ENE 02:22:57 13° E 02:25:26 10° ESE visible
08 Jun 2.1 03:58:05 10° NNE 04:03:27 84° WNW 04:08:46 10° SSW visible
